User: anonymous   Login
Location: Rehoboth Beach
(38.7438°N, 75.1341°W)
Time: 03:58:45
(UTC-04:00)
Language:

Cosmos 1452 Rocket - Orbit

View from above orbital plane
View from above orbital plane
View from above satellite
View from above satellite

Ground track
Ground track

The orbit data is extracted from the following two-line orbital elements,

1 13992U 83031B   14295.15556874  .00000367  00000-0  13583-3 0  5435
2 13992 074.0538 344.1729 0005437 220.1646 200.0086 14.35793918649716
Epoch (UTC): 22 October 2014 03:44:01
Eccentricity: 0.0005437
inclination: 74.0538°
perigee height: 768 km
apogee height: 776 km
right ascension of ascending node: 344.1729°
argument of perigee: 220.1646°
revolutions per day: 14.35793918
mean anomaly at epoch: 200.0086°
orbit number at epoch: 64971

The dashed part of the orbit path shows where the satellite is in the earth's shadow,  

DLR